Regional Weather Roundup
Issued by NWS

Home | Current Version | Previous Version | Graphics & Text | Print | Product List | Glossary Off
Versions: 1 2 3 4 5 6 7 8 9 10 11 12 13 14 15 16 17 18 19 20 21 22 23 24 25 26 27 28 29 30 31 32 33 34 35 36 37 38 39 40 41 42 43 44 45 46 47 48 49 50

000
ASUS43 KTOP 211708
RWRKS

WEATHER ROUNDUP FOR KANSAS
NATIONAL WEATHER SERVICE GOODLAND KS
1200 PM CDT FRI JUL 21 2017

NOTE:  "FAIR" INDICATES FEW OR NO CLOUDS BELOW 12,000 FEET WITH NO
SIGNIFICANT WEATHER AND/OR OBSTRUCTIONS TO VISIBILITY.

KSZ001>006-013>018-027>032-041>047-211800-
NORTHWEST KANSAS

CITY           SKY/WX    TMP DP  RH WIND       PRES   REMARKS
GOODLAND       SUNNY     94  62  34 W3        29.97S
HAYS           SUNNY     99  63  30 SW13G21   29.88F HX 101
HILL CITY      SUNNY     98  60  28 SW10      29.87F HX  98
RUSSELL        SUNNY     98  63  31 S13G23    29.87F HX 100
$$

KSZ061>065-074>080-084>089-211800-
SOUTHWEST KANSAS

CITY           SKY/WX    TMP DP  RH WIND       PRES   REMARKS
DODGE CITY     SUNNY     97  60  29 SW14      29.95F HX  97
ELKHART          N/A     94  50  22 SW12        N/A
GARDEN CITY    SUNNY     92  61  35 SW13      29.96S
LIBERAL        SUNNY     96  61  31 SW16      29.99S HX  96
PRATT          SUNNY     95  61  32 S16       29.94S HX  95
$$

KSZ066>073-081>083-090>101-211800-
SOUTHEAST KANSAS

CITY           SKY/WX    TMP DP  RH WIND       PRES   REMARKS
CHANUTE        SUNNY     94  72  48 S14G26    29.98S HX 102
COFFEYVILLE    SUNNY     93  73  52 S14G23    29.97F HX 102
HUTCHINSON     SUNNY     98  64  32 S17       29.92S HX 100
MEDICINE LODGE   N/A     97  63  32 SW10G20   29.92S HX  98
NEWTON         SUNNY     96  68  39 SW17G25   29.95S HX 101
PARSONS        SUNNY     92  73  53 S10G18    29.99S HX 100
WICHITA INTL   SUNNY     96  69  41 S20       29.93F HX 102
WICHITA JABRA  SUNNY     96  68  39 S22       29.94S HX 101
WICHITA MCCONL SUNNY     96  67  38 SW17      29.94F HX  99
WINFIELD       SUNNY     97  70  41 S16G23    29.96F HX 103
$$

KSZ007>012-019>026-033>040-048>060-102>105-211800-
NORTHEAST KANSAS

CITY           SKY/WX    TMP DP  RH WIND       PRES   REMARKS
CONCORDIA      SUNNY     97  67  37 S20       29.86S HX 101
EMPORIA        SUNNY     96  70  42 S14G25    29.93F HX 102
LAWRENCE       SUNNY     94  74  52 S8        29.92F HX 104
MANHATTAN      SUNNY     99  70  38 SW16G23   29.88S HX 106
MARYSVILLE     SUNNY     97  70  41 S15       29.86S HX 103
OLATHE IND     SUNNY     93  74  53 S13       29.96R HX 103
OLATHE EXE     SUNNY     89  76  65 SW10      29.96R HX 100
SALINA         SUNNY    100  65  31 S18G26    29.87F HX 103
TOPEKA BILLARD SUNNY     94  75  54 S12       29.90F HX 105
TOPEKA FORBES  SUNNY     95  74  50 S14       29.92F HX 105
$$




USA.gov is the U.S. government's official web portal to all federal, state and local government web resources and services.